Orbital Elements at Epoch 2459200.5 (2020-Dec-17.0) TDB
Reference: JPL 9 (heliocentric ecliptic J2000)
Element | Value | Uncertainty (1-sigma) | Units |
e | .08438873643602936 | 5.7127e-08 | |
a | 2.808629773372282 | 3.1002e-08 | au |
q | 2.571613055680784 | 1.7549e-07 | au |
i | 5.761108012564839 | 7.4042e-06 | deg |
node | 76.78734419214406 | 5.0108e-05 | deg |
peri | 266.0051337043959 | 6.791e-05 | deg |
M | 316.7816060141357 | 4.6604e-05 | deg |
tp | 2459406.898384358035 (2021-Jul-11.39838436) | 0.00022375 | TDB |
period | 1719.254500599804 4.71 | 2.8466e-05 7.794e-08 | d yr |
n | .2093930828009495 | 3.4669e-09 | deg/d |
Q | 3.045646491063781 | 3.3618e-08 | au |
|
| | Orbit Determination Parameters
Additional Information
|